[Iaude] MPEC N151: THREE NEW TNOS
    mpec at cfa.harvard.edu 
    mpec at cfa.harvard.edu
       
    Mon Jul 15 05:20:09 EDT 2024
    
    
  
M.P.E.C. 2024-N151                                Issued 2024 July 15, 08:29 UT
     The Minor Planet Electronic Circulars contain information on unusual
         minor planets, routine data on comets and natural satellites,
         and occasional editorial announcements.  They are published
    on behalf of Division F of the International Astronomical Union by the
          Minor Planet Center, Smithsonian Astrophysical Observatory,
                          Cambridge, MA 02138, U.S.A.
			  
             Prepared using the Tamkin Foundation Computer Network
                              MPC at CFA.HARVARD.EDU
            URL https://www.minorplanetcenter.net/    ISSN 1523-6714
                                 THREE NEW TNOS                                 
Observations:
     K17BO4S 1C2006 06 26.26328911 32 33.17 +05 48 03.1                WEN151T09
     K17BO4S 1C2006 06 26.26542311 32 33.17 +05 48 02.9                WEN151T09
     K17BO4S 1C2016 04 02.40375212 20 48.40 +01 19 36.5                WEN151T09
     K17BO4S 1C2016 04 02.47715812 20 48.08 +01 19 38.4                WEN151T09
     K17BO4S 1C2016 06 05.31719312 17 41.46 +01 37 15.8                WEN151T09
     K17BO4S 1C2016 06 05.33062212 17 41.45 +01 37 15.9                WEN151T09
     K17BO4S 1C2017 01 23.62771812 29 11.08 +00 25 40.7                WEN151T09
     K17BO4S 4C2017 01 23.62773 12 29 11.08 +00 25 40.7          23.9 i1EN151T09
     K17BO4S 4C2017 01 23.63574 12 29 11.07 +00 25 40.9          24.1 i1EN151T09
     K17BO4S 4C2017 01 23.64112 12 29 11.06 +00 25 40.9          23.9 i1EN151T09
     K17BO4S 4C2017 01 23.64921 12 29 11.05 +00 25 40.7          24.1 i1EN151T09
     K17BO4S 1C2017 01 23.65459212 29 11.04 +00 25 41.0                WEN151T09
     K17BO4S 4C2017 01 23.65460 12 29 11.05 +00 25 41.0          24.2 i1EN151T09
     K17BO4S*4C2017 01 28.60612 12 29 03.18 +00 26 56.5          24.7 z1EN151T09
     K17BO4S 4C2017 01 28.61148 12 29 03.17 +00 26 56.5          24.2 z1EN151T09
     K17BO4S 4C2017 01 28.63649 12 29 03.12 +00 26 57.0          24.1 z1EN151T09
     K17BO4S 4C2017 01 28.63916 12 29 03.12 +00 26 57.0          24.0 z1EN151T09
     K17BO4S 1C2017 02 01.64891712 28 55.38 +00 28 06.2                WEN151T09
     K17BO4S 1C2017 02 01.65976912 28 55.36 +00 28 06.4                WEN151T09
     K17BO4S 1C2017 02 23.61655112 27 53.91 +00 36 11.7                WEN151T09
     K17DH0K 1C2014 02 27.59809612 25 10.60 +00 55 29.7                WEN151T09
     K17DH0K 1C2014 02 27.60351612 25 10.58 +00 55 29.8                WEN151T09
     K17DH0K 1C2016 04 05.45230112 33 15.30 +00 00 37.5                WEN151T09
     K17DH0K 1C2016 04 05.57025612 33 14.76 +00 00 40.9                WEN151T09
     K17DH0K 1C2017 01 30.65708212 42 42.25 -01 03 58.1                WEN151T09
     K17DH0K 1C2017 02 02.66474612 42 36.55 -01 03 08.5                WEN151T09
     K17DH0K 4C2017 02 21.48870 12 41 44.93 -00 56 27.9          25.0 z1EN151T09
     K17DH0K 4C2017 02 21.53656 12 41 44.76 -00 56 26.4          24.3 z1EN151T09
     K17DH0K 4C2017 02 21.55809 12 41 44.67 -00 56 26.1          25.1 z1EN151T09
     K17DH0K 4C2017 02 21.60643 12 41 44.51 -00 56 24.9          24.7 z1EN151T09
     K17DH0K*4C2017 02 23.53005 12 41 37.86 -00 55 36.6          25.4 r1EN151T09
     K17DH0K 4C2017 02 23.56764 12 41 37.72 -00 55 35.7          25.7 r1EN151T09
     K17DH0K 4C2017 02 23.60167 12 41 37.60 -00 55 34.7          25.6 r1EN151T09
     K17DH0K 1C2019 04 03.46956012 49 45.34 -01 50 27.1                WEN151T09
     K17DH0L 1C2014 02 28.58200312 36 50.63 +00 47 08.7                WEN151T09
     K17DH0L 1C2014 02 28.59971712 36 50.56 +00 47 09.2                WEN151T09
     K17DH0L 1C2014 02 28.62411112 36 50.48 +00 47 09.8                WEN151T09
     K17DH0L 1C2014 02 28.64122512 36 50.41 +00 47 10.3                WEN151T09
     K17DH0L 1C2016 04 04.44537912 41 50.84 +00 30 38.7                WEN151T09
     K17DH0L 1C2016 04 04.48275912 41 50.68 +00 30 39.8                WEN151T09
     K17DH0L 1C2016 04 04.52800512 41 50.50 +00 30 40.9                WEN151T09
     K17DH0L 1C2016 04 04.55790112 41 50.38 +00 30 41.7                WEN151T09
     K17DH0L 1C2016 04 06.59963512 41 42.29 +00 31 34.6                WEN151T09
     K17DH0L 1C2016 04 06.60525012 41 42.28 +00 31 34.6                WEN151T09
     K17DH0L*4C2017 02 21.52305 12 48 01.52 -00 03 57.7          24.1 z1EN151T09
     K17DH0L 4C2017 02 21.53924 12 48 01.46 -00 03 57.4          24.5 z1EN151T09
     K17DH0L 4C2017 02 21.54460 12 48 01.45 -00 03 57.0          24.3 z1EN151T09
     K17DH0L 4C2017 02 21.56882 12 48 01.38 -00 03 56.7          24.4 z1EN151T09
     K17DH0L 4C2017 02 21.59841 12 48 01.28 -00 03 55.8          24.0 z1EN151T09
     K17DH0L 4C2017 02 21.60910 12 48 01.26 -00 03 55.7          24.5 z1EN151T09
     K17DH0L 4C2017 02 23.54421 12 47 55.57 -00 03 09.5          25.1 r1EN151T09
     K17DH0L 4C2017 02 23.58033 12 47 55.47 -00 03 08.7          25.0 r1EN151T09
     K17DH0L 4C2017 02 23.61428 12 47 55.38 -00 03 07.8          25.1 r1EN151T09
     K17DH0L 4C2017 02 23.64401 12 47 55.27 -00 03 07.1          24.9 r1EN151T09
     K17DH0L 1C2017 04 27.39592212 44 02.07 +00 23 27.1                WEN151T09
     K17DH0L 1C2017 04 27.40845112 44 02.02 +00 23 27.4                WEN151T09
     K17DH0L 1C2019 04 03.47758112 52 51.77 -00 18 42.5                WEN151T09
     K17DH0L 1C2019 04 06.44935912 52 39.92 -00 17 24.6                WEN151T09
     K17DH0L 1C2019 04 06.52851512 52 39.60 -00 17 22.6                WEN151T09
Observer details:
T09 Subaru Telescope, Maunakea.  Observers , H. Aihara, Y. AlSayyad, M. Ando,
    R. Armstrong, J. Bosch, E. Egami, H. Furusawa, J. Furusawa, S. Harasawa,
    Y. Harikane, B.-C. Hsieh, H. Ikeda, K. Ito, I. Iwata, T. Kodama, M. Koike,
    M. Kokubo, Y. Komiyama, X. Li, Y. Liang, Y.-T. Lin, R. H. Lupton, N. B.
    Lust, L. A. MacArthur, K. Mawatari, S. Mineo, H. Miyatake, S. Miyazaki, S.
    More, T. Morishima, H. Murayama, K. Nakajima, F. Nakata, A. J. Nishizawa,
    M. Oguri, N. Okabe, Y. Okura, Y. Ono, K. Osato, M. Ouchi, Y.-C. Pan, A. A.
    Plazas Malagon, P. A. Price, S. L. Reed, E. S. Rykoff, T. Shibuya, M.
    Simunovic, M. A. Strauss, K. Sugimori, Y. Suto, N. Suzuki, M. Takada, Y.
    Takagi, T. Takata, S. Takita, M. Tanaka, S. Tang, D. S. Taranu, T. Terai,
    Y. Toba, E. L. Turner, H. Uchiyama, B. Vijarnwannaluk, C. Z. Waters, Y.
    Yamada, N. Yamamoto, T. Yamashita.  Measurers S. Deen, H. Fukuyama.  8.3-m
    Subaru Telescope + CCD, 8.2-m f/2.0 reflector + CCD(HSC).
Orbital elements:
2017 BS244                                                                      
Epoch 2024 Oct. 17.0 TT = JDT 2460600.5                 Alexandersen            
M 120.44033              (2000.0)            P               Q                  
n   0.00341244     Peri.  295.11948     +0.36560991     -0.92929619             
a  43.6944657      Node   133.33033     +0.87777746     +0.32555156             
e   0.0598515      Incl.    4.12510     +0.30957410     +0.17442698             
P 289              H    7.86          G   0.15           U   5                  
Residuals in seconds of arc
K066Q  T09  0.0   0.1+    K171N  T09  0.0   0.0     K171S  T09  0.1-  0.0  
K066Q  T09  0.0   0.1-    K171N  T09  0.0   0.1+    K171S  T09  0.1-  0.1+ 
K1642  T09  0.1+  0.1+    K171N  T09  0.0   0.1+    K171S  T09  0.1-  0.0  
K1642  T09  0.0   0.0     K171N  T09  0.0   0.3-    K1721  T09  0.1+  0.0  
K1665  T09  0.0   0.0     K171N  T09  0.0   0.0     K1721  T09  0.1+  0.0  
K1665  T09  0.0   0.0     K171N  T09  0.1+  0.0     K172N  T09  0.0   0.1- 
K171N  T09  0.0   0.0     K171S  T09  0.1-  0.1+    
2017 DK170                                                                      
Epoch 2024 Oct. 17.0 TT = JDT 2460600.5                 Alexandersen            
M   7.65882              (2000.0)            P               Q                  
n   0.00340955     Peri.  111.00565     -0.97911307     +0.19480776             
a  43.7191142      Node    80.26386     -0.20147999     -0.89127463             
e   0.0733799      Incl.    3.38546     -0.02726539     -0.40948684             
P 289              H    9.25          G   0.15           U   5                  
Residuals in seconds of arc
K142R  T09  0.0   0.0     K1722  T09  0.1+  0.1-    K172N  T09  0.1+  0.0  
K142R  T09  0.0   0.1-    K172L  T09  0.1+  0.0     K172N  T09  0.0   0.1- 
K1645  T09  0.1-  0.0     K172L  T09  0.0   0.3+    K172N  T09  0.1+  0.0  
K1645  T09  0.1+  0.0     K172L  T09  0.2-  0.1+    K1943  T09  0.1-  0.1- 
K171U  T09  0.0   0.1-    K172L  T09  0.1-  0.1+    
2017 DL170                                                                      
Epoch 2024 Oct. 17.0 TT = JDT 2460600.5                 Alexandersen            
M 205.83828              (2000.0)            P               Q                  
n   0.00401960     Peri.  206.36659     +0.99786260     -0.02958855             
a  39.1754583      Node   155.12076     +0.04471788     +0.95934460             
e   0.2468424      Incl.    7.96058     -0.04765017     +0.28068214             
P 245              H    7.94          G   0.15           U   5                  
Residuals in seconds of arc
K142S  T09  0.1+  0.0     K1646  T09  0.1+  0.0     K172N  T09  0.2+  0.0  
K142S  T09  0.0   0.0     K172L  T09  0.1+  0.1+    K172N  T09  0.1-  0.0  
K142S  T09  0.0   0.0     K172L  T09  0.1-  0.0     K174R  T09  0.0   0.0  
K142S  T09  0.2-  0.0     K172L  T09  0.0   0.3+    K174R  T09  0.1-  0.0  
K1644  T09  0.1+  0.1-    K172L  T09  0.1+  0.0     K1943  T09  0.0   0.1- 
K1644  T09  0.0   0.0     K172L  T09  0.1-  0.2+    K1946  T09  0.0   0.0  
K1644  T09  0.0   0.1-    K172L  T09  0.1+  0.0     K1946  T09  0.0   0.0  
K1644  T09  0.0   0.0     K172N  T09  0.1-  0.0     
K1646  T09  0.1-  0.1+    K172N  T09  0.0   0.1-    
M. P. C. Staff               (C) Copyright 2024 MPC           M.P.E.C. 2024-N151
    
    
More information about the Iaude
mailing list